Weather History for Parkersburg, WV

Change the Weather History Date:

Friday, April 12, 2013

  Actual Average Record
Temperature  
Mean Temperature 56 °F 53 °F  
Max Temperature 66 °F 65 °F 88 °F (1930)
Min Temperature 46 °F 41 °F 25 °F (1892)
Degree Days  
Heating Degree Days 9 12  
Month to date heating degree days 154 170  
Since 1 July heating degree days 4702 4631  
Growing Degree Days 8 (Base 50)    
Moisture  
Dew Point 46 °F    
Average Humidity 65    
Maximum Humidity 90    
Minimum Humidity 40    
Precipitation  
Precipitation 0.14 in 0.11 in 0.96 in (2004)
Month to date precipitation 0.14 1.31  
Year to date precipitation 8.35 10.69  
Sea Level Pressure  
Sea Level Pressure 29.71 in    
Wind  
Wind Speed 10 mph (WSW)    
Max Wind Speed 23 mph    
Max Gust Speed 31 mph    
Visibility 10 miles    
Events Rain    
T = Trace of Precipitation, MM = Missing Value Source: NWS Daily Summary

Daily Weather History Graph

Daily Weather History Graph

Search for Another Location

Airport:

Trip Planner

Search our weather history database for the weather conditions in past years. The results will help you decide how hot, cold, wet, or windy it might be!

Date:

Astronomy

Apr. 12, 2013 Rise Set
Actual Time 6:52 AM EDT 8:00 PM EDT
Civil Twilight 6:25 AM EDT 8:28 PM EDT
Nautical Twilight 5:52 AM EDT 9:01 PM EDT
Astronomical Twilight 5:18 AM EDT 9:35 PM EDT
Moon 8:02 AM EDT (4/12) 10:29 PM EDT (4/12)
Length of Visible Light 14h 03m
Length of Day
13h 07m
Waxing Crescent, 5% of the Moon is Illuminated
Apr 12
Waxing Crescent
Apr 18
First Quarter
Apr 25
Full
May 2
Last Quarter
May 9
New

Hourly Weather History & Observations

Time (EDT) Temp. Dew Point Humidity Pressure Visibility Wind Dir Wind Speed Gust Speed Precip Events Conditions
12:53 AM 66.0 °F 57.9 °F 75% 29.62 in 10.0 mi West 5.8 mph - 0.00 in Rain Light Rain
1:53 AM 63.0 °F 59.0 °F 87% 29.60 in 7.0 mi SSE 8.1 mph - 0.01 in Rain Light Rain
2:53 AM 62.1 °F 57.9 °F 86% 29.55 in 10.0 mi SSE 5.8 mph - 0.03 in Rain Light Rain
3:53 AM 61.0 °F 57.9 °F 90% 29.55 in 10.0 mi South 9.2 mph - 0.01 in Rain Light Rain
4:53 AM 61.0 °F 57.9 °F 90% 29.53 in 10.0 mi South 5.8 mph - 0.00 in Rain Light Rain
5:53 AM 60.1 °F 57.9 °F 93% 29.52 in 9.0 mi SSE 4.6 mph - 0.02 in Rain Light Rain
6:34 AM 60.8 °F 57.2 °F 88% 29.54 in 8.0 mi South 8.1 mph - 0.07 in Rain Light Rain
6:53 AM 60.1 °F 57.9 °F 93% 29.54 in 9.0 mi SSW 8.1 mph - 0.07 in   Overcast
7:53 AM 60.1 °F 57.0 °F 90% 29.57 in 10.0 mi SW 9.2 mph 21.9 mph N/A   Overcast
8:50 AM 57.2 °F 51.8 °F 82% 29.65 in 10.0 mi WSW 13.8 mph 21.9 mph 0.00 in   Overcast
8:53 AM 57.0 °F 51.1 °F 81% 29.64 in 10.0 mi West 11.5 mph 21.9 mph 0.00 in   Overcast
9:36 AM 57.2 °F 50.0 °F 77% 29.67 in 10.0 mi WSW 13.8 mph 21.9 mph N/A   Overcast
9:53 AM 55.9 °F 51.1 °F 84% 29.67 in 4.0 mi West 9.2 mph 19.6 mph 0.00 in Rain Light Rain
10:53 AM 55.9 °F 48.9 °F 77% 29.70 in 7.0 mi WSW 9.2 mph 21.9 mph 0.00 in   Overcast
11:46 AM 55.4 °F 46.4 °F 72% 29.73 in 10.0 mi West 11.5 mph 26.5 mph N/A   Overcast
11:53 AM 57.0 °F 46.0 °F 67% 29.72 in 10.0 mi West 12.7 mph 20.7 mph N/A   Overcast
12:00 PM 55.4 °F 46.4 °F 72% 29.74 in 10.0 mi SW 12.7 mph 21.9 mph N/A   Overcast
12:11 PM 57.2 °F 44.6 °F 63% 29.73 in 10.0 mi WSW 15.0 mph 26.5 mph N/A   Overcast
12:24 PM 55.4 °F 42.8 °F 63% 29.74 in 10.0 mi WSW 19.6 mph 23.0 mph N/A   Overcast
12:53 PM 55.9 °F 43.0 °F 62% 29.74 in 10.0 mi WSW 15.0 mph 25.3 mph N/A   Overcast
1:53 PM 55.9 °F 41.0 °F 57% 29.74 in 10.0 mi WSW 10.4 mph 21.9 mph N/A   Overcast
2:00 PM 57.2 °F 41.0 °F 55% 29.75 in 10.0 mi West 15.0 mph 23.0 mph N/A   Mostly Cloudy
2:53 PM 57.9 °F 41.0 °F 53% 29.75 in 10.0 mi WSW 16.1 mph 26.5 mph N/A   Mostly Cloudy
3:53 PM 57.0 °F 37.0 °F 47% 29.76 in 10.0 mi SW 16.1 mph 25.3 mph N/A   Clear
4:53 PM 57.0 °F 34.0 °F 42% 29.77 in 10.0 mi West 12.7 mph 28.8 mph N/A   Partly Cloudy
5:53 PM 55.0 °F 33.1 °F 43% 29.81 in 10.0 mi West 12.7 mph 28.8 mph N/A   Mostly Cloudy
6:53 PM 52.0 °F 32.0 °F 47% 29.85 in 10.0 mi West 12.7 mph 20.7 mph N/A   Overcast
7:53 PM 52.0 °F 32.0 °F 47% 29.86 in 10.0 mi West 8.1 mph - N/A   Overcast
8:53 PM 52.0 °F 33.1 °F 49% 29.87 in 10.0 mi West 10.4 mph 16.1 mph N/A   Overcast
9:53 PM 51.1 °F 33.1 °F 50% 29.90 in 10.0 mi West 6.9 mph - N/A   Overcast
10:53 PM 50.0 °F 34.0 °F 54% 29.92 in 10.0 mi WNW 13.8 mph - N/A   Overcast
11:53 PM 48.0 °F 34.0 °F 58% 29.94 in 10.0 mi West 12.7 mph 19.6 mph N/A   Overcast